AA1GM Weather Reports


time (UTC)temp
C
wind
direction
speed
KPH
gust
KPH
rain 1hr
cm
rain 24hr
cm
rain mn
cm
humidity
%
barometer
mb
20260505002504 15 243 0.0 0.0 0.00 0.00 0.00 57 1006.9
20260505002008 15 243 0.0 0.0 0.00 0.00 0.00 53 1006.7
20260505001520 16 243 0.0 0.0 0.00 0.00 0.00 49 1006.7
20260505001008 16 243 0.0 0.0 0.00 0.00 0.00 52 1006.5
20260505000506 16 243 0.0 0.0 0.00 0.00 0.00 50 1006.4
20260505000025 16 243 0.0 0.0 0.00 0.00 0.00 51 1006.3
20260504235508 16 243 0.0 1.6 0.00 0.00 0.00 48 1006.3
20260504235008 17 243 0.0 3.2 0.00 0.00 0.00 44 1006.2
20260504234510 18 244 0.0 3.2 0.00 0.00 0.00 43 1006.1
20260504234005 18 244 0.0 3.2 0.00 0.00 0.00 40 1006.1
20260504233504 18 244 0.0 3.2 0.00 0.00 0.00 39 1006.0
20260504233014 18 248 0.0 3.2 0.00 0.00 0.00 38 1006.0
20260504232505 19 234 0.0 3.2 0.00 0.00 0.00 37 1006.0
20260504232007 19 270 0.0 3.2 0.00 0.00 0.00 37 1006.0
20260504231518 19 260 0.0 3.2 0.00 0.00 0.00 37 1005.9
20260504231008 19 261 1.6 3.2 0.00 0.00 0.00 37 1005.9
20260504230509 20 227 0.0 6.4 0.00 0.00 0.00 36 1005.8
20260504230021 20 222 1.6 8.0 0.00 0.00 0.00 34 1005.7
20260504225511 20 217 1.6 8.0 0.00 0.00 0.00 35 1005.7
20260504225008 20 220 0.0 8.0 0.00 0.00 0.00 35 1005.6
20260504224526 20 264 3.2 8.0 0.00 0.00 0.00 34 1005.4
20260504224007 20 216 1.6 4.8 0.00 0.00 0.00 35 1005.5
20260504223503 20 225 0.0 3.2 0.00 0.00 0.00 35 1005.5
20260504223014 20 213 0.0 4.8 0.00 0.00 0.00 35 1005.5
20260504222508 20 219 1.6 6.4 0.00 0.00 0.00 34 1005.3
20260504222008 20 259 0.0 6.4 0.00 0.00 0.00 35 1005.3
20260504221518 20 250 1.6 9.7 0.00 0.00 0.00 34 1005.3
20260504221008 20 238 1.6 9.7 0.00 0.00 0.00 32 1005.4
20260504220505 20 243 4.8 9.7 0.00 0.00 0.00 32 1005.4
20260504220022 21 250 4.8 11.3 0.00 0.00 0.00 32 1005.4
20260504215509 21 157 3.2 11.3 0.00 0.00 0.00 32 1005.5
20260504215008 21 294 1.6 9.7 0.00 0.00 0.00 33 1005.5
20260504214526 21 196 1.6 9.7 0.00 0.00 0.00 31 1005.5
20260504214009 21 294 3.2 11.3 0.00 0.00 0.00 33 1005.5
20260504213508 21 247 1.6 11.3 0.00 0.00 0.00 32 1005.4
20260504213024 21 291 3.2 11.3 0.00 0.00 0.00 31 1005.4
20260504212503 21 240 3.2 11.3 0.00 0.00 0.00 33 1005.3
20260504212007 20 273 3.2 9.7 0.00 0.00 0.00 33 1005.4
20260504211514 20 260 3.2 11.3 0.00 0.00 0.00 33 1005.4
20260504211004 21 260 3.2 12.9 0.00 0.00 0.00 32 1005.4
20260504210505 21 254 3.2 22.5 0.00 0.00 0.00 30 1005.2
20260504205511 21 297 6.4 19.3 0.00 0.00 0.00 31 1005.2
20260504205009 21 323 6.4 16.1 0.00 0.00 0.00 32 1005.2
20260504204523 21 303 4.8 14.5 0.00 0.00 0.00 31 1005.2
20260504204011 21 294 4.8 14.5 0.00 0.00 0.00 31 1005.3
20260504203513 21 284 6.4 11.3 0.00 0.00 0.00 32 1005.2
20260504203034 21 217 4.8 11.3 0.00 0.00 0.00 33 1005.2
20260504202507 21 221 0.0 12.9 0.00 0.00 0.00 31 1005.2
20260504202010 21 271 4.8 14.5 0.00 0.00 0.00 32 1005.3
20260504201014 21 226 4.8 12.9 0.00 0.00 0.00 32 1005.2
20260504200507 21 216 4.8 12.9 0.00 0.00 0.00 31 1005.4
20260504195508 21 296 1.6 11.3 0.00 0.00 0.00 33 1005.4
20260504195009 21 267 3.2 17.7 0.00 0.00 0.00 33 1005.4
20260504194010 21 234 4.8 12.9 0.00 0.00 0.00 32 1005.4
20260504193512 21 294 4.8 12.9 0.00 0.00 0.00 31 1005.4
20260504193024 21 288 3.2 16.1 0.00 0.00 0.00 33 1005.4
20260504192509 21 289 6.4 20.9 0.00 0.00 0.00 31 1005.4
20260504192010 20 219 8.0 17.7 0.00 0.00 0.00 32 1005.5
20260504191526 21 246 4.8 14.5 0.00 0.00 0.00 31 1005.6
20260504191014 21 236 3.2 14.5 0.00 0.00 0.00 33 1005.5
20260504190504 21 221 4.8 11.3 0.00 0.00 0.00 32 1005.5
20260504190019 20 267 3.2 11.3 0.00 0.00 0.00 34 1005.6
20260504185507 20 169 3.2 11.3 0.00 0.00 0.00 35 1005.6
20260504185003 20 294 4.8 12.9 0.00 0.00 0.00 34 1005.5
20260504184504 20 263 4.8 12.9 0.00 0.00 0.00 32 1005.6
20260504184003 20 255 4.8 9.7 0.00 0.00 0.00 33 1005.6
20260504183503 20 282 1.6 9.7 0.00 0.00 0.00 32 1005.7
20260504183006 20 259 3.2 8.0 0.00 0.00 0.00 33 1005.6
20260504182510 20 274 1.6 8.0 0.00 0.00 0.00 32 1005.7
20260504182006 20 215 1.6 8.0 0.00 0.00 0.00 33 1005.7
20260504181004 20 274 3.2 12.9 0.00 0.00 0.00 33 1005.6
20260504180506 20 258 3.2 9.7 0.00 0.00 0.00 33 1005.7
20260504180017 20 222 3.2 12.9 0.00 0.00 0.00 32 1005.6
20260504175505 20 213 4.8 17.7 0.00 0.00 0.00 32 1005.6
20260504175006 20 206 3.2 17.7 0.00 0.00 0.00 33 1005.7
20260504174003 20 290 6.4 20.9 0.00 0.00 0.00 30 1005.7
20260504173502 20 285 8.0 20.9 0.00 0.00 0.00 31 1005.8
20260504173005 21 261 6.4 19.3 0.00 0.00 0.00 30 1005.9
20260504172504 21 223 3.2 19.3 0.00 0.00 0.00 32 1005.9
20260504172004 21 273 6.4 14.5 0.00 0.00 0.00 31 1006.0
20260504171006 20 226 6.4 19.3 0.00 0.00 0.00 31 1005.9
20260504170505 20 242 6.4 19.3 0.00 0.00 0.00 31 1005.9
20260504141003 16 210 3.2 11.3 0.00 0.00 0.00 45 1007.9
20260504140503 16 305 4.8 11.3 0.00 0.00 0.00 43 1008.0
20260504130508 12 228 1.6 8.0 0.00 0.00 0.00 53 1008.6
20260504110506 7 217 0.0 3.2 0.00 0.00 0.00 63 1009.7
20260504100510 6 211 1.6 3.2 0.00 0.00 0.00 64 1009.4
20260504082002 5 280 0.0 0.0 0.00 0.00 0.00 79 1009.4
20260504081514 4 280 0.0 0.0 0.00 0.00 0.00 78 1009.4
20260504081004 4 280 0.0 3.2 0.00 0.00 0.00 78 1009.4
20260504080507 5 280 0.0 3.2 0.00 0.00 0.00 76 1009.4
20260504050506 2 280 0.0 3.2 0.00 0.00 0.00 83 1009.1
20260504050012 1 280 0.0 0.0 0.00 0.00 0.00 85 1009.2
20260504045503 1 280 0.0 0.0 0.00 0.00 0.00 85 1009.2
20260504045004 1 280 0.0 0.0 0.00 0.00 0.00 84 1009.2
20260504044517 1 280 0.0 0.0 0.00 0.00 0.00 85 1009.2
20260504044007 1 280 0.0 3.2 0.00 0.00 0.00 84 1009.2
20260504043508 1 280 0.0 3.2 0.00 0.00 0.00 84 1009.2
20260504043026 2 280 0.0 0.0 0.00 0.00 0.00 83 1009.2
20260504042508 2 280 0.0 0.0 0.00 0.00 0.00 85 1009.3
20260504042007 2 280 0.0 0.0 0.00 0.00 0.00 85 1009.2
20260504041526 2 280 0.0 0.0 0.00 0.00 0.00 83 1009.2
20260504041004 2 280 0.0 0.0 0.00 0.00 0.00 84 1009.2
20260504040504 2 280 0.0 0.0 0.00 0.00 0.00 84 1009.1
20260504040010 2 280 0.0 0.0 0.00 0.00 0.00 84 1009.2
20260504035506 2 280 0.0 0.0 0.00 0.00 0.00 84 1009.1
20260504035004 2 280 0.0 0.0 0.00 0.00 0.00 84 1009.2
20260504034516 2 280 0.0 0.0 0.00 0.00 0.00 84 1009.2
20260504034010 2 280 0.0 0.0 0.00 0.00 0.00 84 1009.1
20260504033506 2 280 0.0 0.0 0.00 0.00 0.00 84 1009.1
20260504033019 2 280 0.0 0.0 0.00 0.00 0.00 83 1009.0
20260504032507 2 280 0.0 0.0 0.00 0.00 0.00 83 1008.9
20260504032009 2 280 0.0 3.2 0.00 0.00 0.00 83 1008.9
20260504031528 2 280 0.0 3.2 0.00 0.00 0.00 82 1008.8
20260504031007 2 280 0.0 3.2 0.00 0.00 0.00 81 1008.8
20260504030508 2 280 0.0 3.2 0.00 0.00 0.00 80 1008.8
20260504030008 2 280 0.0 3.2 0.00 0.00 0.00 78 1008.8
20260504025505 2 280 0.0 3.2 0.00 0.00 0.00 83 1008.9
20260504025005 2 280 0.0 3.2 0.00 0.00 0.00 81 1008.9
20260504024511 2 280 0.0 3.2 0.00 0.00 0.00 80 1008.9
20260504024003 3 280 0.0 3.2 0.00 0.00 0.00 81 1008.8
20260504023503 3 280 0.0 0.0 0.00 0.00 0.00 79 1008.9
20260504023019 2 280 0.0 0.0 0.00 0.00 0.00 79 1008.9
20260504022503 3 280 0.0 0.0 0.00 0.00 0.00 80 1008.8
20260504022008 3 280 0.0 0.0 0.00 0.03 0.00 81 1008.9
20260504021527 2 280 0.0 0.0 0.00 0.03 0.00 81 1008.9
20260504021009 2 280 0.0 3.2 0.00 0.03 0.00 81 1008.8
20260504020506 2 280 0.0 3.2 0.00 0.03 0.00 79 1008.8
20260504020030 3 280 0.0 1.6 0.00 0.03 0.00 79 1008.7
20260504015508 3 280 0.0 0.0 0.00 0.03 0.00 76 1008.7
20260504015021 3 280 0.0 0.0 0.00 0.03 0.00 77 1008.7
20260504014510 3 280 0.0 1.6 0.00 0.03 0.00 79 1008.6
20260504014004 3 280 0.0 1.6 0.00 0.03 0.00 77 1008.5
20260504013507 3 280 0.0 3.2 0.00 0.03 0.00 77 1008.5
20260504013017 3 280 0.0 3.2 0.00 0.03 0.00 76 1008.6
20260504012510 4 280 0.0 3.2 0.00 0.03 0.00 75 1008.5
20260504012008 4 280 0.0 0.0 0.00 0.05 0.00 74 1008.6
20260504011521 4 280 0.0 0.0 0.00 0.08 0.00 71 1008.5
20260504011010 5 280 0.0 0.0 0.00 0.08 0.00 72 1008.5
20260504010513 5 280 0.0 0.0 0.00 0.08 0.00 68 1008.4
20260504010026 5 280 0.0 0.0 0.00 0.08 0.00 73 1008.2
20260504005508 5 280 0.0 0.0 0.00 0.08 0.00 72 1008.2
20260504005010 5 280 0.0 0.0 0.00 0.10 0.00 67 1008.2
20260504004526 6 280 0.0 0.0 0.00 0.10 0.00 67 1008.1
20260504004009 6 280 0.0 3.2 0.00 0.13 0.00 67 1008.1
20260504003511 6 280 0.0 3.2 0.00 0.15 0.00 66 1008.0
20260504003014 7 280 0.0 3.2 0.00 0.18 0.00 58 1008.0